Tracking 19706 objects as of 15-Jun-2019
HD Live streaming from Space Station
objects crossing your sky now

METEOR 2-8 DEB

Track METEOR 2-8 DEB now!
10-day predictions


NORAD ID: 36322
Int'l Code: 1982-025G
Perigee: 833.3 km
Apogee: 876.6 km
Inclination: 82.5 °
Period: 101.9 minutes
Semi major axis: 7225 km
RCS: 0.0112 m2 (small)
Launch date: March 25, 1982
Source: Commonwealth of Independent States (former USSR) (CIS)
Launch site: PLESETSK MISSILE AND SPACE COMPLEX (PKMTR)

Note: This is SATELLITE DEBRIS
aabbcc
Your satellite tracking list
Your tracking list is empty




NASA's NSSDC Master Catalog

Two Line Element Set (TLE):
1 36322U 82025G   19143.39732093  .00000813  00000-0  42303-3 0  9994
2 36322  82.5355 187.8091 0030006 116.9449 243.4798 14.13381093835155
Source of the keplerian elements: AFSPC